EHI
36 39 47 48 44 40 35 30 24 19 14 9 6 5 5 7 9 12 16 19 19 16 14 13 9 8 7 5 4 6 11 14 15 13 9 10 16 20 21 21 22 29 37
39 41 47 48 43 39 34 30 26 20 17 14 11 8 6 6 7 10 13 16 16 15 13 10 8 7 5 4 3 4 6 11 14 13 9 8 13 17 19 20 25 31 37
43 43 45 46 42 38 33 30 28 24 21 20 16 11 8 6 6 7 10 11 12 12 10 8 6 5 3 3 3 3 4 8 12 13 10 8 11 18 21 22 26 31 34
44 42 42 43 42 38 34 30 29 28 26 23 20 14 9 7 6 5 6 7 8 8 8 7 5 2 2 2 3 3 4 6 10 12 10 8 13 25 30 26 24 27 29
45 43 42 41 41 40 37 33 31 30 28 26 23 19 14 11 8 4 2 3 4 5 5 5 5 4 3 2 2 2 3 4 7 9 10 10 18 34 38 28 22 23 24
45 42 39 39 39 40 40 36 32 31 30 28 25 23 21 17 11 5 2 1 2 2 3 5 6 6 6 4 2 1 2 3 4 7 9 13 26 42 42 29 21 20 20
40 38 37 38 38 38 40 38 33 31 30 28 25 25 25 22 16 11 6 3 2 2 2 5 7 7 7 6 4 1 1 2 3 5 7 15 31 47 45 33 25 21 18
35 36 36 36 36 38 41 39 33 30 30 29 27 26 26 24 20 16 11 6 4 4 4 6 7 7 6 5 3 2 1 2 3 3 5 16 35 48 45 37 31 24 18
31 34 36 35 35 38 40 38 33 30 31 32 31 28 25 22 19 16 13 10 7 6 5 6 7 8 7 4 2 2 2 3 4 3 4 17 37 46 41 35 32 25 19
26 30 33 34 33 34 36 35 32 32 34 36 33 29 24 18 16 16 16 15 14 10 7 6 7 9 9 5 3 3 3 4 4 3 5 19 37 43 37 31 27 24 21
23 26 29 31 29 28 30 30 30 31 35 36 33 30 25 18 16 17 19 23 23 17 11 9 9 9 8 5 4 4 4 4 3 3 8 23 37 39 34 28 24 22 20
23 25 28 27 25 25 27 28 27 29 33 34 32 30 26 22 19 17 22 30 29 23 17 15 14 11 8 5 4 5 5 2 1 3 13 31 40 37 30 25 21 18 16
24 26 28 28 28 28 29 29 28 29 33 35 35 33 29 28 25 22 26 31 29 23 19 18 18 16 12 8 6 5 4 2 2 4 16 33 39 32 25 21 18 15 13
26 27 29 32 36 37 36 33 30 30 34 39 42 40 34 31 28 25 26 28 25 22 20 20 20 19 15 11 6 4 4 4 4 6 16 28 32 26 20 17 15 13 12
27 26 28 35 43 44 43 40 35 34 36 41 46 44 37 31 27 25 26 27 23 21 21 21 20 19 15 10 6 4 4 5 6 8 13 21 25 22 18 15 14 13 13
25 25 28 35 41 43 43 42 38 37 38 41 45 44 38 32 28 28 30 30 24 19 19 20 19 18 15 11 8 6 6 7 8 9 10 14 18 19 19 18 16 15 15
26 28 29 30 33 36 36 36 35 36 39 40 41 42 39 34 31 32 34 33 27 21 20 22 23 21 16 13 10 9 9 8 9 10 10 9 9 13 17 18 17 18 18
31 32 30 27 30 33 31 28 29 32 34 33 34 36 37 33 30 31 32 32 30 26 23 24 24 21 16 11 9 9 9 9 10 11 10 8 6 7 10 12 14 16 17
34 34 32 30 31 31 28 26 27 28 26 24 24 28 29 26 24 25 25 26 28 27 23 20 20 18 13 9 6 6 8 9 11 10 8 8 7 6 6 7 9 11 12
32 33 33 32 30 28 26 26 27 25 22 19 19 21 20 18 18 18 17 18 22 22 19 18 17 14 12 8 5 4 5 7 9 8 6 6 6 6 5 5 7 8 9
29 31 33 31 29 26 25 26 23 20 18 16 16 16 14 13 13 13 12 13 16 17 16 18 18 14 11 9 6 4 3 4 5 6 5 4 3 4 4 5 8 10 9
29 31 32 31 28 25 26 24 20 16 15 14 14 13 12 11 12 11 11 11 12 14 16 18 18 14 10 9 8 6 4 3 3 3 3 2 2 3 4 5 9 12 13
27 29 31 31 29 27 24 21 18 15 14 12 11 12 11 10 10 10 10 9 9 11 14 15 15 14 11 9 9 8 6 4 2 2 2 1 1 2 3 3 7 12 14
19 24 28 29 29 26 21 18 17 15 12 9 8 9 9 8 8 8 8 6 6 7 10 12 13 13 12 10 10 10 6 4 2 2 2 1 1 2 1 2 4 8 10
13 17 22 25 25 22 18 16 15 12 8 7 8 9 8 7 6 6 6 5 4 6 9 11 12 12 11 10 10 9 4 1 1 1 1 1 1 1 1 2 4 6 7
11 13 18 22 24 21 17 13 11 8 5 6 8 9 9 8 6 6 5 5 5 6 9 11 12 11 10 9 9 6 2 0 1 1 1 0 0 1 2 4 6 6 6
Wind_Speed
12 13 15 13 12 11 11 10 9 9 9 9 9 8 8 8 8 8 8 8 8 8 8 7 6 5 4 3 2 2 3 4 3 3 3 4 4 5 4 4 1 3 8
13 14 15 13 12 11 10 10 10 9 9 8 8 8 8 8 7 7 7 7 7 7 6 6 5 5 4 3 2 1 1 1 0 1 2 3 4 5 4 3 2 4 8
14 14 14 13 12 11 10 10 9 9 9 8 8 8 8 8 7 7 7 6 6 6 6 5 5 4 4 3 2 2 2 2 3 4 5 5 6 8 6 5 5 5 6
14 13 13 13 12 10 10 9 9 9 8 8 7 7 7 7 7 7 6 6 6 5 5 5 5 4 4 3 3 3 4 4 5 6 6 6 5 9 10 7 6 6 5
13 13 14 14 12 10 9 9 9 8 8 8 7 7 7 6 6 6 6 6 6 5 5 5 4 4 4 4 4 4 5 6 7 8 7 4 3 9 11 9 7 6 5
13 14 14 13 12 10 9 9 8 8 8 8 7 7 6 6 6 6 6 6 6 5 5 5 5 5 5 5 5 5 6 7 8 8 6 4 5 11 12 10 8 7 6
12 13 13 13 11 10 9 8 8 7 7 7 7 7 6 6 6 6 6 6 6 6 6 6 6 6 6 6 6 6 7 9 8 8 5 3 6 12 12 10 9 8 7
11 13 12 12 11 10 9 9 8 7 7 7 6 6 6 6 6 7 7 7 6 6 6 7 6 6 7 7 7 8 9 10 9 8 5 2 8 11 11 10 9 8 8
10 12 10 10 9 9 9 9 8 8 8 7 7 6 7 8 8 8 8 8 7 7 7 7 7 7 8 8 9 10 10 11 10 7 7 3 10 11 10 8 8 7 8
8 10 10 9 8 8 7 8 9 8 8 8 8 7 8 9 10 10 9 8 8 8 8 8 8 9 9 9 10 11 11 10 10 9 5 4 11 11 10 8 7 7 8
6 7 7 8 7 7 7 7 8 8 8 8 7 7 6 6 7 7 9 9 9 9 9 9 9 9 9 10 12 12 10 6 8 6 4 7 11 11 11 10 9 8 8
4 3 5 6 5 5 5 5 5 5 6 6 5 6 5 4 4 5 7 9 10 10 9 10 10 10 9 6 8 11 6 8 8 5 4 10 10 11 11 10 9 9 10
4 4 3 3 4 4 3 4 3 3 3 5 4 4 3 3 2 2 2 4 6 7 6 6 7 6 5 4 4 4 6 6 4 3 4 11 11 11 11 10 10 10 10
5 5 4 3 2 2 2 2 2 2 3 2 3 3 2 2 2 2 1 2 3 3 3 3 4 5 5 5 5 5 6 5 3 2 4 11 12 12 12 11 11 11 11
5 5 5 4 3 2 1 1 1 1 2 3 2 2 2 2 2 2 2 1 2 2 3 4 4 4 4 5 5 5 5 6 5 3 3 10 12 12 12 13 12 12 12
5 5 4 4 4 3 1 1 0 1 1 1 2 2 3 2 2 2 2 2 2 2 2 3 3 3 4 4 4 4 5 5 4 4 3 6 11 12 12 13 13 12 12
4 5 4 3 4 3 2 2 1 1 1 0 0 1 2 2 2 2 2 1 2 2 3 2 3 3 3 4 4 5 4 5 4 4 4 3 5 10 12 12 12 12 13
5 4 4 4 4 3 2 2 2 2 2 2 2 1 1 1 1 2 1 2 2 2 2 2 2 2 3 3 3 4 3 4 4 5 4 4 4 4 9 13 13 13 13
4 3 3 3 3 3 2 2 2 2 2 1 1 1 1 0 1 1 2 2 3 2 2 3 1 2 3 3 4 4 3 3 4 5 5 6 5 4 4 9 14 15 15
4 3 2 3 3 2 2 1 1 1 1 1 1 1 1 1 1 1 2 2 3 2 2 2 3 3 3 3 6 4 3 4 3 4 5 4 4 4 4 5 6 9 14
4 3 3 2 2 2 2 1 1 1 1 1 1 1 1 1 1 1 2 2 2 2 2 3 2 3 3 3 3 4 3 4 3 3 3 3 3 4 4 4 4 4 6
3 2 2 2 2 2 1 1 1 1 1 1 1 1 2 2 2 2 1 2 2 2 3 3 2 2 3 2 2 3 2 2 3 4 3 4 3 3 4 5 4 4 4
2 2 2 2 1 2 2 1 1 1 2 1 1 1 2 2 2 2 1 2 2 2 2 3 3 3 2 2 2 1 2 2 2 2 4 2 2 3 3 3 4 3 4
4 3 2 1 1 1 2 2 2 2 2 2 2 2 2 2 2 2 2 2 2 2 3 3 2 2 3 2 2 3 3 2 2 2 2 2 3 3 3 4 4 3 3
4 4 3 2 2 2 2 2 3 3 2 2 2 2 3 2 2 2 2 2 3 2 3 3 2 2 2 2 2 2 2 2 3 2 3 3 2 2 3 4 3 3 3
3 3 3 2 2 3 3 3 3 4 4 4 4 3 3 2 2 2 2 2 3 3 3 3 2 3 2 2 2 2 2 1 2 2 3 3 3 3 3 2 3 2 2
Wind_Direction
108 123 126 123 123 125 127 127 129 129 129 132 133 132 130 126 122 120 119 122 124 128 133 136 138 140 137 126 103 65 51 50 62 76 91 97 103 108 110 104 112 134 127
115 125 127 124 125 128 132 132 134 135 130 132 139 142 142 141 140 139 136 136 138 141 144 149 153 154 156 158 155 139 93 66 116 195 179 176 166 153 146 140 95 102 121
115 126 129 125 127 131 134 135 137 138 138 137 142 148 151 153 154 153 151 152 154 157 161 165 171 175 179 180 189 201 212 227 236 237 230 221 185 173 165 151 132 128 127
119 131 132 129 130 134 138 139 140 144 146 146 146 152 158 160 161 162 164 167 171 174 176 182 187 194 198 205 211 216 227 237 245 250 240 228 194 171 165 157 152 145 143
119 126 130 135 136 139 142 146 148 150 153 156 159 162 166 168 169 171 175 181 187 191 191 196 202 208 215 221 225 230 237 243 250 253 253 234 158 158 161 160 159 160 161
117 123 133 139 141 144 148 153 155 157 160 164 168 169 174 177 180 184 189 194 198 203 206 209 212 218 223 226 234 240 246 249 255 252 244 198 158 160 159 165 168 172 177
113 123 133 140 142 147 152 152 153 157 163 167 171 175 179 183 188 194 201 206 209 212 217 218 220 222 226 230 235 240 247 254 256 260 250 203 162 158 161 169 174 181 185
115 122 131 143 147 152 155 155 156 163 165 169 173 181 185 188 196 205 210 214 218 221 226 226 226 227 228 230 235 240 245 255 258 262 255 202 151 159 160 166 178 188 193
115 122 134 144 151 156 159 160 164 170 171 172 177 187 193 198 206 213 216 217 219 223 229 231 230 231 231 232 235 240 245 251 265 268 256 181 155 159 161 168 179 193 201
114 122 135 144 149 157 163 170 174 174 175 177 185 194 204 210 213 216 216 215 220 226 231 234 234 233 234 236 238 240 245 253 253 255 250 178 160 163 169 179 187 198 208
97 114 135 140 149 160 166 165 177 181 182 185 194 203 210 219 219 214 215 209 217 225 232 236 237 237 239 239 239 239 242 242 246 240 228 176 169 171 177 185 195 205 215
72 105 134 138 145 161 162 156 177 188 182 197 198 196 212 226 224 218 202 203 213 223 231 235 241 242 242 238 235 233 233 239 241 237 204 175 176 181 185 190 200 212 219
62 40 53 111 137 146 143 159 180 182 173 202 201 196 214 229 228 225 192 192 209 220 224 228 231 235 236 237 238 225 230 243 242 229 188 172 182 189 194 200 207 217 225
58 38 27 67 99 124 134 157 180 187 177 193 185 198 208 220 237 236 213 201 209 211 206 218 225 225 234 240 242 238 236 244 242 218 183 182 189 195 200 207 212 220 225
56 42 23 19 59 68 89 189 180 205 190 180 175 180 215 218 231 235 234 213 227 220 213 221 228 235 240 243 247 244 244 250 255 246 187 190 195 203 206 211 216 220 223
49 39 31 29 47 50 35 38 340 217 196 169 167 182 209 226 237 242 230 217 241 244 232 232 236 242 244 250 257 257 251 248 244 241 226 204 204 208 213 216 218 222 224
56 49 37 47 58 58 28 6 18 349 1 6 149 171 199 223 253 249 241 219 240 257 254 249 250 250 249 252 251 253 246 248 241 237 238 232 213 214 217 216 217 222 225
62 53 37 30 40 39 29 12 7 13 4 1 13 5 208 195 237 270 257 251 248 246 245 244 239 255 265 268 259 254 245 241 244 238 230 232 230 226 216 215 217 221 225
72 66 48 36 40 34 30 27 8 2 342 341 13 357 20 286 255 276 256 260 253 244 261 270 262 258 266 275 273 252 246 237 237 240 229 225 223 226 222 213 217 223 226
71 65 60 49 44 30 38 26 15 351 325 320 358 355 354 306 288 287 264 259 255 246 257 267 273 258 256 261 274 272 252 244 234 239 236 230 225 231 234 230 216 224 226
67 59 55 44 45 28 25 354 331 320 315 279 243 282 306 291 276 247 276 273 259 243 255 259 261 258 262 262 276 282 265 245 228 233 235 238 228 227 234 232 216 216 217
92 86 86 59 36 6 17 312 276 302 284 257 227 223 245 251 261 251 248 287 278 263 268 260 262 257 264 254 269 293 286 267 253 239 221 225 234 239 244 250 232 221 221
66 68 58 61 41 352 340 302 321 307 287 303 298 270 260 251 247 271 264 271 280 258 263 264 258 252 259 263 230 238 263 270 298 253 250 242 231 231 244 252 249 240 236
33 46 49 62 49 351 319 324 314 297 301 305 298 280 290 278 268 252 251 264 271 268 267 261 254 260 251 263 252 237 247 285 286 293 272 260 248 241 240 256 258 251 243
16 38 36 33 11 346 308 297 294 305 306 302 298 290 275 261 252 255 237 253 265 266 267 266 265 251 241 246 259 265 272 274 262 274 287 284 277 262 247 242 242 241 246
17 26 29 34 11 348 333 325 308 302 300 294 286 285 278 260 249 255 242 252 255 254 257 256 246 246 244 248 252 255 259 269 276 271 279 282 277 273 262 251 247 244 238